RADUGA 18 [-]

Last updated on June 24, 2019, 3:40 a.m. UTC

1 16497U 86007A   19173.65797454 -.00000116  00000-0  00000-0 0  9995
2 16497  14.3725 341.8315 0071352 134.2273 226.3789  0.98814031120640
UTC
Height (km)
Latitude
Longitude
Inclination
Orbital Period
UTC large
Height (km)
Speed (km/s)
/
Latitude / Longitude
Inclination (degrees)
Orbital Period (minutes)
Azimuth
Elevation
Range (km)
Doppler Factor
iOS Compass Heading
iOS Angle

Next 30 passes for location: Hong Kong

Rise time Rise Azimuth (degrees) Set time Set Azimuth (degrees) Duration Max altitude (degrees)

No matching passes for this satellites